Regional Weather Roundup
Issued by NWS

Home | Current Version | Previous Version | Graphics & Text | Print | Product List | Glossary On
Versions: 1 2 3 4 5 6 7 8 9 10 11 12 13 14 15 16 17 18 19 20 21 22 23 24 25 26 27 28 29 30 31 32 33 34 35 36 37 38 39 40 41 42 43 44 45 46 47 48 49 50
000
ASUS43 KOAX 152010
RWRNE

WEATHER ROUNDUP FOR NEBRASKA
NATIONAL WEATHER SERVICE OMAHA NE
300 PM CDT TUE APR 15 2014

NOTES: SATELLITE DATA IS BEING USED TO AUGMENT CLOUD COVER ABOVE
       12000 FEET.
       "FAIR" INDICATES FEW OR NO CLOUDS BELOW 12,000 FEET WITH NO
       SIGNIFICANT WEATHER AND/OR OBSTRUCTIONS TO VISIBILITY.

  * THESE STATIONS DO NOT REPORT WEATHER SUCH AS RAIN...SNOW OR FOG.

NEZ001>004-019>022-054>056-152100-
NEBRASKA PANHANDLE

CITY           SKY/WX    TMP DP  RH WIND       PRES   REMARKS
SCOTTSBLUFF    PTSUNNY   63  24  22 W20G31    29.76F
ALLIANCE       CLOUDY    60  18  19 W16G25    29.74F
CHADRON        PTSUNNY   63  27  25 W18       29.69F
KIMBALL        PTSUNNY   60  18  20 W16G28    29.79F
SIDNEY         PTSUNNY   64  20  18 W21G26    29.80F
$$

NEZ057>060-069>072-079>082-152100-
SOUTHWEST NEBRASKA

CITY           SKY/WX    TMP DP  RH WIND       PRES   REMARKS
NORTH PLATTE   PTSUNNY   64  24  21 SW20G25   29.80F
IMPERIAL       PTSUNNY   63  19  18 SW18G26   29.82F
LEXINGTON      PTSUNNY   58  31  35 S23       29.85F
MCCOOK         CLOUDY    63  25  23 S17G26    29.85F
OGALLALA       PTSUNNY   63  22  20 W14G23    29.79F
$$

NEZ005>010-023>029-035>040-094-152100-
NORTH CENTRAL NEBRASKA

CITY           SKY/WX    TMP DP  RH WIND       PRES   REMARKS
VALENTINE      PTSUNNY   62  19  19 SW13      29.70F
AINSWORTH      PTSUNNY   61  24  24 S18G26    29.74F
BROKEN BOW     PTSUNNY   58  28  32 S18G29    29.82F
O`NEILL        MOSUNNY   53  22  29 S24G30    29.83F
ORD            PTSUNNY   53  27  36 S23G32    29.85F
THEDFORD       CLOUDY    62  22  22 SW16G23   29.77F
$$

NEZ041-046>049-061>064-073>077-083>087-152100-
SOUTH CENTRAL NEBRASKA

CITY           SKY/WX    TMP DP  RH WIND       PRES   REMARKS
GRAND ISLAND   MOSUNNY   56  26  31 S18G31    29.93F
AURORA         SUNNY     56  28  35 S17G28    29.94F
HASTINGS       MOSUNNY   58  22  24 S18G24    29.91F
HEBRON         SUNNY     58  19  21 S20G25    29.99F
HOLDREGE       PTSUNNY   59  25  27 S24G30    29.88F
KEARNEY *      PTSUNNY   59  25  27 S22G30    29.89F
YORK           MOSUNNY   54  28  37 S22       29.96F
$$

NEZ011>018-030>034-042>045-152100-
NORTHEAST NEBRASKA

CITY           SKY/WX    TMP DP  RH WIND       PRES   REMARKS
NORFOLK        SUNNY     49  25  39 S22G30    29.94F
ALBION         SUNNY     50  29  44 S21G28    29.92F
BLAIR          SUNNY     47  24  39 S16G24    30.04F
COLUMBUS *     SUNNY     50  28  43 S17G28    29.97F
FREMONT        SUNNY     50  22  34 S16G22    30.03F
TEKAMAH        SUNNY     50  23  34 S15G28    30.04F
$$

NEZ050>053-065>068-078-088>093-152100-
SOUTHEAST NEBRASKA

CITY           SKY/WX    TMP DP  RH WIND       PRES   REMARKS
LINCOLN        MOSUNNY   54  25  32 S16G25    30.04F
OMAHA EPPLEY   MOSUNNY   49  20  31 S16G22    30.07F
BEATRICE       SUNNY     55  24  30 S14G25    30.04F
FALLS CITY     SUNNY     52  26  36 S9G20     30.08F
NEBRASKA CITY  SUNNY     50  24  35 SE15      30.07F
PLATTSMOUTH    SUNNY     49  19  29 S10G22    30.07F
$$

NEZ044-045-051>053-067-152100-
OMAHA AREA

CITY           SKY/WX    TMP DP  RH WIND       PRES   REMARKS
OMAHA EPPLEY   MOSUNNY   49  20  31 S16G22    30.07F
BLAIR          SUNNY     47  24  39 S16G24    30.04F
FREMONT        SUNNY     50  22  34 S16G22    30.03F
MILLARD        SUNNY     48  22  35 S15       30.05F
OFFUTT AFB     SUNNY     49  21  33 S13G20    30.07F
PLATTSMOUTH    SUNNY     49  19  29 S10G22    30.07F
WAHOO          FAIR      50  22  33 S18G28    30.03F
$$



USA.gov is the U.S. government's official web portal to all federal, state and local government web resources and services.